Lake Murray Weather Center

Moon Phase Calendar



Lake Murray Water Level
Online Cameras

 


      

Current Conditions in Chapin
4/21/2024 6:57:30 PM

55°F
Feels Like 55
Clouds
Humidity
89%
Pressure
29.88"
Wind
5 mph (NE)
Dew Point
52°F
UV Index
0/10 (Low)
Visibility
6 mi

Hourly Forecast

Date & Time Sun, Apr 21
6:00 PM
Sun, Apr 21
7:00 PM
Sun, Apr 21
8:00 PM
Sun, Apr 21
9:00 PM
Sun, Apr 21
10:00 PM
Sun, Apr 21
11:00 PM
Mon, Apr 22
12:00 AM
Mon, Apr 22
1:00 AM
Mon, Apr 22
2:00 AM
Mon, Apr 22
3:00 AM
Mon, Apr 22
4:00 AM
Mon, Apr 22
5:00 AM
Mon, Apr 22
6:00 AM
Mon, Apr 22
7:00 AM
Mon, Apr 22
8:00 AM
Mon, Apr 22
9:00 AM
Mon, Apr 22
10:00 AM
Mon, Apr 22
11:00 AM
Mon, Apr 22
12:00 PM
Mon, Apr 22
1:00 PM
Mon, Apr 22
2:00 PM
Mon, Apr 22
3:00 PM
Mon, Apr 22
4:00 PM
Mon, Apr 22
5:00 PM
Mon, Apr 22
6:00 PM
Mon, Apr 22
7:00 PM
Mon, Apr 22
8:00 PM
Mon, Apr 22
9:00 PM
Mon, Apr 22
10:00 PM
Mon, Apr 22
11:00 PM
Tue, Apr 23
12:00 AM
Tue, Apr 23
1:00 AM
Tue, Apr 23
2:00 AM
Tue, Apr 23
3:00 AM
Tue, Apr 23
4:00 AM
Tue, Apr 23
5:00 AM
Tue, Apr 23
6:00 AM
Tue, Apr 23
7:00 AM
Tue, Apr 23
8:00 AM
Tue, Apr 23
9:00 AM
Tue, Apr 23
10:00 AM
Tue, Apr 23
11:00 AM
Tue, Apr 23
12:00 PM
Tue, Apr 23
1:00 PM
Tue, Apr 23
2:00 PM
Tue, Apr 23
3:00 PM
Tue, Apr 23
4:00 PM
Tue, Apr 23
5:00 PM
Condition
Rain

Clouds

Clouds

Clouds

Clouds

Clouds

Clouds

Clouds

Clouds

Clouds

Clouds

Clouds

Clouds

Clouds

Clouds

Clouds

Clouds

Clouds

Clouds

Clouds

Clouds

Clouds

Clouds

Clouds

Clouds

Clouds

Clouds

Clear

Clear

Clear

Clear

Clear

Clear

Clear

Clear

Clear

Clear

Clear

Clear

Clear

Clear

Clear

Clear

Clear

Clear

Clouds

Clouds

Clouds
Temperature 54°F55°F54°F54°F53°F52°F50°F50°F49°F47°F47°F47°F46°F46°F46°F47°F52°F57°F59°F61°F63°F64°F65°F64°F63°F60°F54°F52°F50°F49°F48°F47°F47°F46°F46°F45°F44°F44°F49°F55°F60°F64°F67°F69°F71°F72°F72°F72°F
Feels Like 54°F55°F54°F53°F52°F51°F50°F48°F47°F44°F45°F44°F42°F42°F42°F43°F50°F54°F57°F59°F60°F62°F62°F62°F61°F58°F51°F49°F48°F47°F46°F45°F45°F44°F44°F43°F42°F42°F48°F53°F58°F62°F65°F67°F69°F71°F71°F71°F
Cloudiness 100%100%100%100%99%99%98%98%98%81%91%88%83%85%88%100%100%100%94%85%84%69%53%34%25%20%17%0%0%0%0%0%1%0%0%0%0%2%3%8%4%4%4%6%6%24%17%13%
Visibility 6 mi6 mi6 mi6 mi6 mi6 mi6 mi6 mi6 mi6 mi6 mi6 mi6 mi6 mi6 mi6 mi6 mi6 mi6 mi6 mi6 mi6 mi6 mi6 mi6 mi6 mi6 mi6 mi6 mi6 mi6 mi6 mi6 mi6 mi6 mi6 mi6 mi6 mi6 mi6 mi6 mi6 mi6 mi6 mi6 mi6 mi6 mi6 mi
Precipitation 100%80%80%0%0%0%0%0%0%0%0%0%0%0%0%0%0%0%0%0%0%0%0%0%0%0%0%0%0%0%0%0%0%0%0%0%0%0%0%0%0%0%0%0%0%0%0%0%
Humidity 91%89%90%92%93%94%96%96%97%98%96%96%93%90%87%80%61%50%44%39%36%33%32%33%35%45%53%54%57%63%67%70%71%72%73%74%77%78%70%59%50%43%39%37%35%34%33%34%
Dew Point 52°F52°F52°F51°F51°F50°F49°F48°F48°F46°F46°F45°F44°F43°F42°F41°F39°F38°F37°F36°F35°F34°F34°F34°F35°F39°F37°F35°F36°F36°F37°F38°F38°F37°F37°F37°F37°F37°F39°F41°F41°F41°F41°F41°F42°F42°F42°F43°F
Pressure 29.88"29.88"29.91"29.94"29.97"30"30.03"30.03"30.03"30.03"30.03"30.06"30.06"30.09"30.12"30.15"30.15"30.15"30.15"30.12"30.12"30.09"30.09"30.09"30.09"30.12"30.15"30.18"30.18"30.21"30.21"30.21"30.21"30.21"30.21"30.21"30.21"30.24"30.24"30.24"30.24"30.24"30.21"30.18"30.15"30.15"30.12"30.09"
Wind Speed 9 mph7.8 mph5.3 mph4.2 mph3.4 mph3.9 mph4.2 mph4.6 mph4.4 mph5 mph5.6 mph6.1 mph6.4 mph7 mph8.4 mph8.8 mph11.1 mph10.6 mph9.4 mph8.8 mph8.7 mph9.4 mph10.2 mph10.3 mph9.8 mph6.6 mph3.7 mph3.4 mph4.4 mph5.1 mph5.1 mph4.8 mph4.6 mph3.8 mph3.8 mph4.2 mph4.1 mph3.9 mph3.2 mph4.3 mph5.2 mph6.4 mph8 mph8.9 mph9.8 mph10.4 mph11.1 mph11.6 mph
Wind
Direction
29°
NNE
19°
NNE
13°
NNE
12°
NNE
22°
NNE
16°
NNE

N

N

N
10°
N
14°
NNE
12°
NNE
19°
NNE

N

N
11°
N
18°
NNE
22°
NNE
18°
NNE

N
358°
N
351°
N
351°
N
359°
N

N
14°
NNE
31°
NNE
76°
ENE
112°
ESE
138°
SE
162°
SSE
178°
S
195°
SSW
211°
SSW
224°
SW
248°
WSW
257°
WSW
254°
WSW
255°
WSW
246°
WSW
233°
SW
228°
SW
228°
SW
229°
SW
225°
SW
226°
SW
227°
SW
227°
SW

Daily Forecast

Date High Low Precip. Humidity
Today
Apr 21

Rain
63 °F
51 °F
100%
96%
Monday
Apr 22

Clouds
65 °F
46 °F
0%
39%
Tuesday
Apr 23

Clear
72 °F
44 °F
0%
37%
Wednesday
Apr 24

Clouds
78 °F
52 °F
0%
41%
Thursday
Apr 25

Rain
61 °F
51 °F
100%
91%
Friday
Apr 26

Clouds
72 °F
48 °F
0%
43%
Saturday
Apr 27

Clouds
74 °F
54 °F
0%
60%
Sunday
Apr 28

Rain
77 °F
63 °F
100%
58%
Monday
Apr 29

Rain
74 °F
60 °F
20%
62%
Tuesday
Apr 30

Rain
79 °F
59 °F
22%
52%
Wednesday
May 1

Clouds
86 °F
67 °F
0%
38%
Thursday
May 2

Rain
87 °F
63 °F
100%
38%
Friday
May 3

Clear
83 °F
55 °F
0%
34%
Saturday
May 4

Clouds
86 °F
59 °F
0%
37%
Sunday
May 5

Clouds
88 °F
67 °F
2%
39%
Monday
May 6

Rain
84 °F
64 °F
100%
51%

Temperature 8-14 Day Outlook



Precipitation 8-14 Day Outlook




Quick Links
Lake Murray News
Lake Murray Photos
Lake Murray Videos




About Us
Contact Us
Site Map
Search Site
Advertise With Us
   
Murray.USLakes.info
THE LAKE MURRAY WEBSITE

Copyright 2024, Lakes Online
Privacy    |    Legal